Location: C�an Torras
(41.5052°N, 1.9280°E)
Time: 18:16:30
(UTC+00:00)

SJ 16-02 - Pass Details

Date: 20 January 2021
Orbit: 606 x 616 km, 75.0° (Epoch: 02 March)

Event Time Altitude Azimuth Distance (km) Brightness Sun altitude
Rises 18:46:22 0° 209° (SSW) 2,865 5.3 -20.9°
Reaches altitude 10° 18:48:39 10° 214° (SW) 1,963 4.5 -21.3°
Maximum altitude 18:52:55 52° 291° (WNW) 767 2.1 -22.1°
Enters shadow 18:55:53 19° 2° (N) 1,469 3.2 -22.7°
